| time (UTC) | temp F | wind direction | speed knots | gust knots | rain 1hr in | rain 24hr in | rain mn in | humidity % | barometer mb |
| 20260507080541 | 54 | 136 | 1.7 | 7.0 | 0.00 | 0.00 | 0.00 | 79 | 1015.8 |
| 20260507075541 | 53 | 182 | 0.0 | 3.5 | 0.00 | 0.00 | 0.00 | 86 | 1015.6 |
| 20260507075041 | 52 | 0 | 0.0 | 3.5 | 0.00 | 0.00 | 0.00 | 88 | 1015.7 |
| 20260507074549 | 51 | 0 | 0.0 | 4.3 | 0.00 | 0.00 | 0.00 | 88 | 1015.7 |
| 20260507074040 | 51 | 149 | 0.9 | 4.3 | 0.00 | 0.00 | 0.00 | 89 | 1015.7 |
| 20260507073544 | 50 | 0 | 0.0 | 2.6 | 0.00 | 0.00 | 0.00 | 90 | 1015.7 |
| 20260507073043 | 50 | 0 | 0.0 | 1.7 | 0.00 | 0.00 | 0.00 | 90 | 1015.7 |
| 20260507072540 | 50 | 118 | 0.0 | 1.7 | 0.00 | 0.00 | 0.00 | 91 | 1015.6 |
| 20260507072040 | 50 | 0 | 0.0 | 1.7 | 0.00 | 0.00 | 0.00 | 91 | 1015.5 |
| 20260507071542 | 50 | 0 | 0.0 | 2.6 | 0.00 | 0.00 | 0.00 | 92 | 1015.6 |
| 20260507071043 | 49 | 0 | 0.0 | 2.6 | 0.00 | 0.00 | 0.00 | 92 | 1015.7 |
| 20260507070541 | 49 | 0 | 0.0 | 0.0 | 0.00 | 0.00 | 0.00 | 92 | 1015.7 |
| 20260507065542 | 49 | 0 | 0.0 | 1.7 | 0.00 | 0.00 | 0.00 | 92 | 1015.6 |
| 20260507065040 | 48 | 0 | 0.0 | 1.7 | 0.00 | 0.00 | 0.00 | 93 | 1015.6 |
| 20260507064621 | 48 | 0 | 0.0 | 1.7 | 0.00 | 0.00 | 0.00 | 93 | 1015.6 |
| 20260507064041 | 48 | 0 | 0.0 | 1.7 | 0.00 | 0.00 | 0.00 | 93 | 1015.5 |
| 20260507063541 | 48 | 0 | 0.0 | 1.7 | 0.00 | 0.00 | 0.00 | 93 | 1015.5 |
| 20260507063051 | 47 | 0 | 0.0 | 0.0 | 0.00 | 0.00 | 0.00 | 93 | 1015.5 |
| 20260507062541 | 47 | 0 | 0.0 | 0.0 | 0.00 | 0.00 | 0.00 | 93 | 1015.5 |
| 20260507062042 | 47 | 0 | 0.0 | 0.0 | 0.00 | 0.00 | 0.00 | 93 | 1015.4 |
| 20260507061545 | 46 | 0 | 0.0 | 0.0 | 0.00 | 0.00 | 0.00 | 93 | 1015.4 |
| 20260507061042 | 46 | 0 | 0.0 | 0.0 | 0.00 | 0.00 | 0.00 | 93 | 1015.5 |
| 20260507060541 | 45 | 0 | 0.0 | 0.0 | 0.00 | 0.00 | 0.00 | 93 | 1015.4 |
| 20260507060107 | 45 | 0 | 0.0 | 0.0 | 0.00 | 0.00 | 0.00 | 93 | 1015.3 |
| 20260507055543 | 44 | 0 | 0.0 | 0.0 | 0.00 | 0.00 | 0.00 | 92 | 1015.2 |
| 20260507055041 | 44 | 0 | 0.0 | 0.0 | 0.00 | 0.00 | 0.00 | 92 | 1015.3 |
| 20260507054557 | 43 | 0 | 0.0 | 0.0 | 0.00 | 0.00 | 0.00 | 92 | 1015.3 |
| 20260507054041 | 43 | 0 | 0.0 | 0.0 | 0.00 | 0.00 | 0.00 | 92 | 1015.2 |
| 20260507053541 | 43 | 0 | 0.0 | 0.0 | 0.00 | 0.00 | 0.00 | 92 | 1015.1 |
| 20260507053048 | 43 | 0 | 0.0 | 0.0 | 0.00 | 0.00 | 0.00 | 92 | 1015.2 |
| 20260507052540 | 42 | 0 | 0.0 | 0.0 | 0.00 | 0.00 | 0.00 | 92 | 1015.1 |
| 20260507052041 | 42 | 0 | 0.0 | 0.0 | 0.00 | 0.00 | 0.00 | 92 | 1015.1 |
| 20260507051603 | 42 | 0 | 0.0 | 0.0 | 0.00 | 0.00 | 0.00 | 92 | 1015.1 |
| 20260507051042 | 42 | 0 | 0.0 | 0.0 | 0.00 | 0.00 | 0.00 | 92 | 1015.0 |
| 20260507050541 | 42 | 0 | 0.0 | 0.0 | 0.00 | 0.00 | 0.00 | 92 | 1015.0 |
| 20260507050052 | 42 | 0 | 0.0 | 0.0 | 0.00 | 0.00 | 0.00 | 92 | 1015.0 |
| 20260507045540 | 42 | 0 | 0.0 | 0.0 | 0.00 | 0.00 | 0.00 | 92 | 1015.0 |
| 20260507045040 | 41 | 0 | 0.0 | 0.0 | 0.00 | 0.00 | 0.00 | 91 | 1015.1 |
| 20260507044556 | 41 | 0 | 0.0 | 0.0 | 0.00 | 0.00 | 0.00 | 91 | 1015.0 |
| 20260507044043 | 41 | 0 | 0.0 | 0.0 | 0.00 | 0.00 | 0.00 | 91 | 1015.0 |
| 20260507043541 | 41 | 0 | 0.0 | 0.0 | 0.00 | 0.00 | 0.00 | 91 | 1015.0 |
| 20260507043055 | 41 | 0 | 0.0 | 0.0 | 0.00 | 0.00 | 0.00 | 91 | 1015.0 |
| 20260507042541 | 41 | 0 | 0.0 | 0.0 | 0.00 | 0.00 | 0.00 | 91 | 1015.0 |
| 20260507042040 | 41 | 0 | 0.0 | 0.0 | 0.00 | 0.00 | 0.00 | 91 | 1015.0 |
| 20260507041543 | 42 | 0 | 0.0 | 0.9 | 0.00 | 0.00 | 0.00 | 91 | 1015.0 |
| 20260507041041 | 42 | 0 | 0.0 | 0.9 | 0.00 | 0.00 | 0.00 | 91 | 1015.1 |
| 20260507040541 | 42 | 0 | 0.0 | 0.0 | 0.00 | 0.00 | 0.00 | 91 | 1015.0 |
| 20260507040051 | 42 | 0 | 0.0 | 0.9 | 0.00 | 0.00 | 0.00 | 91 | 1015.0 |
| 20260507035540 | 42 | 0 | 0.0 | 0.9 | 0.00 | 0.00 | 0.00 | 90 | 1015.0 |
| 20260507035040 | 42 | 0 | 0.0 | 0.0 | 0.00 | 0.00 | 0.00 | 90 | 1015.0 |
| 20260507034547 | 42 | 0 | 0.0 | 0.0 | 0.00 | 0.00 | 0.00 | 91 | 1015.0 |
| 20260507034041 | 42 | 0 | 0.0 | 0.0 | 0.00 | 0.00 | 0.00 | 91 | 1015.0 |
| 20260507033541 | 42 | 0 | 0.0 | 0.0 | 0.00 | 0.00 | 0.00 | 91 | 1014.9 |
| 20260507033048 | 42 | 0 | 0.0 | 0.0 | 0.00 | 0.00 | 0.00 | 91 | 1014.9 |
| 20260507032541 | 42 | 0 | 0.0 | 0.0 | 0.00 | 0.00 | 0.00 | 91 | 1015.0 |
| 20260507032044 | 42 | 0 | 0.0 | 0.0 | 0.00 | 0.00 | 0.00 | 91 | 1015.0 |
| 20260507031547 | 42 | 0 | 0.0 | 0.0 | 0.00 | 0.00 | 0.00 | 91 | 1014.9 |
| 20260507031043 | 42 | 0 | 0.0 | 0.0 | 0.00 | 0.00 | 0.00 | 90 | 1015.0 |
| 20260507030541 | 42 | 0 | 0.0 | 0.0 | 0.00 | 0.00 | 0.00 | 90 | 1015.0 |
| 20260507030051 | 42 | 0 | 0.0 | 0.0 | 0.00 | 0.00 | 0.00 | 90 | 1014.9 |
| 20260507025540 | 42 | 0 | 0.0 | 0.0 | 0.00 | 0.00 | 0.00 | 90 | 1015.0 |
| 20260507025041 | 42 | 0 | 0.0 | 0.9 | 0.00 | 0.00 | 0.00 | 90 | 1015.0 |
| 20260507024549 | 42 | 0 | 0.0 | 0.9 | 0.00 | 0.00 | 0.00 | 90 | 1015.0 |
| 20260507024040 | 42 | 0 | 0.0 | 0.9 | 0.00 | 0.00 | 0.00 | 89 | 1014.9 |
| 20260507023540 | 42 | 0 | 0.0 | 1.7 | 0.00 | 0.00 | 0.00 | 89 | 1014.9 |
| 20260507023048 | 42 | 0 | 0.0 | 1.7 | 0.00 | 0.00 | 0.00 | 89 | 1014.8 |
| 20260507022542 | 42 | 0 | 0.0 | 1.7 | 0.00 | 0.00 | 0.00 | 89 | 1014.7 |
| 20260507022042 | 42 | 0 | 0.0 | 0.9 | 0.00 | 0.00 | 0.00 | 89 | 1014.7 |
| 20260507021548 | 43 | 0 | 0.0 | 2.6 | 0.00 | 0.00 | 0.00 | 89 | 1014.6 |
| 20260507021043 | 43 | 0 | 0.0 | 2.6 | 0.00 | 0.00 | 0.00 | 89 | 1014.7 |
| 20260507020541 | 43 | 0 | 0.0 | 2.6 | 0.00 | 0.00 | 0.00 | 89 | 1014.7 |
| 20260507015545 | 43 | 0 | 0.0 | 2.6 | 0.00 | 0.00 | 0.00 | 89 | 1014.7 |
| 20260507015044 | 43 | 314 | 0.0 | 0.0 | 0.00 | 0.00 | 0.00 | 89 | 1014.6 |
| 20260507014548 | 43 | 0 | 0.0 | 0.9 | 0.00 | 0.00 | 0.00 | 89 | 1014.5 |
| 20260507014041 | 43 | 0 | 0.0 | 0.9 | 0.00 | 0.00 | 0.00 | 89 | 1014.6 |
| 20260507013543 | 43 | 0 | 0.0 | 0.9 | 0.00 | 0.00 | 0.00 | 89 | 1014.6 |
| 20260507013047 | 43 | 0 | 0.0 | 0.9 | 0.00 | 0.00 | 0.00 | 88 | 1014.5 |
| 20260507012542 | 43 | 0 | 0.0 | 0.9 | 0.00 | 0.00 | 0.00 | 89 | 1014.6 |
| 20260507012041 | 43 | 0 | 0.0 | 0.9 | 0.00 | 0.00 | 0.00 | 88 | 1014.6 |
| 20260507011550 | 43 | 0 | 0.0 | 0.9 | 0.00 | 0.00 | 0.00 | 88 | 1014.7 |
| 20260507011040 | 43 | 0 | 0.0 | 0.0 | 0.00 | 0.00 | 0.00 | 88 | 1014.7 |
| 20260507010541 | 43 | 0 | 0.0 | 0.9 | 0.00 | 0.00 | 0.00 | 88 | 1014.7 |
| 20260507010100 | 43 | 0 | 0.0 | 1.7 | 0.00 | 0.00 | 0.00 | 88 | 1014.7 |
| 20260507005541 | 43 | 0 | 0.0 | 1.7 | 0.00 | 0.00 | 0.00 | 87 | 1014.7 |
| 20260507005041 | 43 | 0 | 0.0 | 2.6 | 0.00 | 0.00 | 0.00 | 87 | 1014.6 |
| 20260507004545 | 43 | 0 | 0.0 | 2.6 | 0.00 | 0.00 | 0.00 | 87 | 1014.6 |
| 20260507004042 | 43 | 348 | 0.0 | 1.7 | 0.00 | 0.00 | 0.00 | 87 | 1014.7 |
| 20260507003541 | 44 | 0 | 0.0 | 1.7 | 0.00 | 0.00 | 0.00 | 87 | 1014.7 |
| 20260507003052 | 44 | 0 | 0.0 | 0.9 | 0.00 | 0.00 | 0.00 | 86 | 1014.7 |
| 20260507002541 | 44 | 0 | 0.0 | 0.0 | 0.00 | 0.00 | 0.00 | 86 | 1014.9 |
| 20260507002042 | 44 | 0 | 0.0 | 0.0 | 0.00 | 0.00 | 0.00 | 86 | 1014.8 |
| 20260507001555 | 44 | 0 | 0.0 | 0.0 | 0.00 | 0.00 | 0.00 | 86 | 1014.8 |
| 20260507001041 | 44 | 0 | 0.0 | 0.0 | 0.00 | 0.00 | 0.00 | 85 | 1014.8 |
| 20260507000541 | 44 | 0 | 0.0 | 0.0 | 0.00 | 0.00 | 0.00 | 85 | 1014.9 |
| 20260507000052 | 44 | 0 | 0.0 | 0.0 | 0.00 | 0.00 | 0.00 | 85 | 1014.9 |
| 20260506235543 | 45 | 0 | 0.0 | 0.0 | 0.00 | 0.00 | 0.00 | 85 | 1014.9 |
| 20260506235041 | 45 | 0 | 0.0 | 0.0 | 0.00 | 0.00 | 0.00 | 85 | 1014.8 |
| 20260506234558 | 45 | 0 | 0.0 | 0.0 | 0.00 | 0.00 | 0.00 | 84 | 1014.7 |
| 20260506234041 | 45 | 0 | 0.0 | 1.7 | 0.00 | 0.00 | 0.00 | 84 | 1014.7 |
| 20260506233545 | 45 | 0 | 0.0 | 1.7 | 0.00 | 0.00 | 0.00 | 84 | 1014.7 |
| 20260506233052 | 45 | 0 | 0.0 | 1.7 | 0.00 | 0.00 | 0.00 | 84 | 1014.7 |
| 20260506232542 | 46 | 308 | 0.0 | 1.7 | 0.00 | 0.00 | 0.00 | 84 | 1014.6 |
| 20260506232041 | 46 | 0 | 0.0 | 1.7 | 0.00 | 0.00 | 0.00 | 83 | 1014.7 |
| 20260506231606 | 46 | 0 | 0.0 | 1.7 | 0.00 | 0.00 | 0.00 | 83 | 1014.6 |
| 20260506231041 | 46 | 0 | 0.0 | 1.7 | 0.00 | 0.00 | 0.00 | 83 | 1014.6 |
| 20260506230541 | 46 | 0 | 0.0 | 1.7 | 0.00 | 0.00 | 0.00 | 82 | 1014.6 |
| 20260506230109 | 47 | 0 | 0.0 | 2.6 | 0.00 | 0.00 | 0.00 | 82 | 1014.7 |
| 20260506225541 | 47 | 0 | 0.0 | 2.6 | 0.00 | 0.00 | 0.00 | 82 | 1014.6 |
| 20260506225041 | 47 | 328 | 0.0 | 2.6 | 0.00 | 0.00 | 0.00 | 82 | 1014.7 |
| 20260506224553 | 47 | 0 | 0.0 | 2.6 | 0.00 | 0.00 | 0.00 | 81 | 1014.6 |
| 20260506224040 | 47 | 0 | 0.0 | 2.6 | 0.00 | 0.00 | 0.00 | 81 | 1014.6 |
| 20260506223543 | 48 | 0 | 0.0 | 2.6 | 0.00 | 0.00 | 0.00 | 81 | 1014.6 |
| 20260506223054 | 48 | 12 | 0.0 | 1.7 | 0.00 | 0.00 | 0.00 | 81 | 1014.6 |
| 20260506222541 | 48 | 346 | 0.0 | 2.6 | 0.00 | 0.00 | 0.00 | 81 | 1014.7 |
| 20260506222044 | 48 | 0 | 0.0 | 3.5 | 0.00 | 0.00 | 0.00 | 80 | 1014.6 |
| 20260506221609 | 48 | 0 | 0.0 | 4.3 | 0.00 | 0.00 | 0.00 | 80 | 1014.6 |
| 20260506221040 | 48 | 360 | 0.9 | 4.3 | 0.00 | 0.00 | 0.00 | 80 | 1014.6 |
| 20260506220541 | 49 | 331 | 1.7 | 6.1 | 0.00 | 0.00 | 0.00 | 80 | 1014.5 |
| 20260506220105 | 49 | 30 | 1.7 | 6.1 | 0.00 | 0.00 | 0.00 | 79 | 1014.5 |
| 20260506215542 | 49 | 333 | 1.7 | 6.1 | 0.00 | 0.00 | 0.00 | 79 | 1014.6 |
| 20260506215041 | 49 | 9 | 1.7 | 6.1 | 0.00 | 0.00 | 0.00 | 79 | 1014.5 |
| 20260506214551 | 49 | 10 | 2.6 | 7.0 | 0.00 | 0.00 | 0.00 | 79 | 1014.5 |
| 20260506214041 | 49 | 341 | 2.6 | 7.0 | 0.00 | 0.00 | 0.00 | 79 | 1014.5 |
| 20260506213540 | 49 | 338 | 2.6 | 7.0 | 0.00 | 0.00 | 0.00 | 78 | 1014.5 |
| 20260506213105 | 50 | 0 | 1.7 | 7.0 | 0.00 | 0.00 | 0.00 | 78 | 1014.5 |
| 20260506212541 | 50 | 325 | 0.0 | 4.3 | 0.00 | 0.00 | 0.00 | 78 | 1014.5 |
| 20260506212041 | 50 | 34 | 0.9 | 5.2 | 0.00 | 0.00 | 0.00 | 77 | 1014.6 |
| 20260506211553 | 50 | 321 | 0.9 | 7.0 | 0.00 | 0.00 | 0.00 | 77 | 1014.5 |
| 20260506211041 | 50 | 11 | 1.7 | 7.0 | 0.00 | 0.00 | 0.00 | 77 | 1014.5 |
| 20260506210541 | 50 | 12 | 0.9 | 7.0 | 0.00 | 0.00 | 0.00 | 77 | 1014.4 |
| 20260506210055 | 50 | 279 | 1.7 | 7.0 | 0.00 | 0.00 | 0.00 | 76 | 1014.2 |
| 20260506205540 | 50 | 17 | 2.6 | 6.1 | 0.00 | 0.00 | 0.00 | 76 | 1014.3 |
| 20260506205042 | 50 | 355 | 1.7 | 6.1 | 0.00 | 0.00 | 0.00 | 76 | 1014.1 |
| 20260506204554 | 51 | 16 | 2.6 | 7.0 | 0.00 | 0.00 | 0.00 | 75 | 1014.1 |
| 20260506204037 | 51 | 30 | 3.5 | 7.0 | 0.00 | 0.00 | 0.00 | 75 | 1014.1 |
| 20260506203545 | 51 | 350 | 1.7 | 7.0 | 0.00 | 0.00 | 0.00 | 75 | 1014.1 |
| 20260506203045 | 51 | 355 | 1.7 | 7.0 | 0.00 | 0.00 | 0.00 | 75 | 1014.1 |
| 20260506202541 | 51 | 355 | 2.6 | 7.8 | 0.00 | 0.00 | 0.00 | 74 | 1014.1 |
| 20260506202041 | 51 | 335 | 2.6 | 7.8 | 0.00 | 0.00 | 0.00 | 74 | 1014.0 |
| 20260506201550 | 51 | 330 | 2.6 | 7.8 | 0.00 | 0.00 | 0.00 | 73 | 1014.0 |
| 20260506201039 | 51 | 5 | 2.6 | 7.8 | 0.00 | 0.00 | 0.00 | 73 | 1014.0 |
| 20260506200541 | 51 | 338 | 2.6 | 7.8 | 0.00 | 0.00 | 0.00 | 73 | 1014.0 |
| 20260506200052 | 51 | 19 | 3.5 | 7.8 | 0.00 | 0.00 | 0.00 | 72 | 1013.9 |
| 20260506195543 | 51 | 326 | 3.5 | 9.6 | 0.00 | 0.00 | 0.00 | 71 | 1013.8 |
| 20260506195041 | 52 | 344 | 3.5 | 9.6 | 0.00 | 0.00 | 0.00 | 71 | 1013.8 |
| 20260506194550 | 52 | 22 | 2.6 | 7.8 | 0.00 | 0.00 | 0.00 | 71 | 1013.7 |
| 20260506194041 | 52 | 5 | 1.7 | 8.7 | 0.00 | 0.00 | 0.00 | 70 | 1013.6 |
| 20260506193537 | 52 | 355 | 3.5 | 8.7 | 0.00 | 0.00 | 0.00 | 70 | 1013.6 |
| 20260506193051 | 52 | 329 | 0.9 | 7.8 | 0.00 | 0.00 | 0.00 | 69 | 1013.5 |
| 20260506192537 | 53 | 335 | 1.7 | 8.7 | 0.00 | 0.00 | 0.00 | 69 | 1013.5 |
| 20260506192042 | 53 | 0 | 3.5 | 8.7 | 0.00 | 0.00 | 0.00 | 68 | 1013.5 |
| 20260506191556 | 53 | 338 | 1.7 | 7.8 | 0.00 | 0.00 | 0.00 | 68 | 1013.4 |
| 20260506191043 | 53 | 332 | 2.6 | 7.8 | 0.00 | 0.00 | 0.00 | 67 | 1013.3 |
| 20260506190542 | 53 | 360 | 1.7 | 7.8 | 0.00 | 0.00 | 0.00 | 67 | 1013.3 |
| 20260506190101 | 53 | 355 | 2.6 | 6.1 | 0.00 | 0.00 | 0.00 | 66 | 1013.3 |
| 20260506185544 | 53 | 9 | 1.7 | 5.2 | 0.00 | 0.00 | 0.00 | 65 | 1013.2 |
| 20260506185043 | 54 | 355 | 1.7 | 7.0 | 0.00 | 0.00 | 0.00 | 64 | 1013.1 |
| 20260506184625 | 54 | 340 | 1.7 | 7.0 | 0.00 | 0.00 | 0.00 | 64 | 1013.0 |
| 20260506184044 | 54 | 5 | 2.6 | 8.7 | 0.00 | 0.00 | 0.00 | 64 | 1013.0 |
| 20260506183546 | 54 | 0 | 3.5 | 8.7 | 0.00 | 0.00 | 0.00 | 63 | 1013.0 |
| 20260506183104 | 54 | 347 | 2.6 | 7.8 | 0.00 | 0.00 | 0.00 | 63 | 1013.0 |
| 20260506182542 | 54 | 343 | 2.6 | 8.7 | 0.00 | 0.00 | 0.00 | 62 | 1012.9 |
| 20260506182042 | 55 | 38 | 2.6 | 8.7 | 0.00 | 0.00 | 0.00 | 62 | 1013.0 |
| 20260506181550 | 55 | 13 | 3.5 | 8.7 | 0.00 | 0.00 | 0.00 | 62 | 1012.7 |
| 20260506181044 | 55 | 9 | 1.7 | 7.0 | 0.00 | 0.00 | 0.00 | 62 | 1012.8 |
| 20260506180545 | 55 | 338 | 2.6 | 7.0 | 0.00 | 0.00 | 0.00 | 62 | 1012.7 |
| 20260506180059 | 55 | 19 | 2.6 | 7.0 | 0.00 | 0.00 | 0.00 | 62 | 1012.6 |
| 20260506175545 | 55 | 13 | 2.6 | 7.8 | 0.00 | 0.00 | 0.00 | 62 | 1012.5 |
| 20260506175047 | 55 | 336 | 2.6 | 7.8 | 0.00 | 0.00 | 0.00 | 62 | 1012.6 |
| 20260506174556 | 55 | 344 | 1.7 | 8.7 | 0.00 | 0.00 | 0.00 | 64 | 1012.6 |
| 20260506174043 | 55 | 12 | 3.5 | 8.7 | 0.00 | 0.00 | 0.00 | 63 | 1012.4 |
| 20260506173544 | 55 | 360 | 3.5 | 8.7 | 0.00 | 0.00 | 0.00 | 63 | 1012.4 |
| 20260506173052 | 55 | 340 | 2.6 | 8.7 | 0.00 | 0.00 | 0.00 | 64 | 1012.4 |
| 20260506172544 | 55 | 5 | 2.6 | 8.7 | 0.00 | 0.00 | 0.00 | 64 | 1012.3 |
| 20260506172045 | 55 | 18 | 3.5 | 11.3 | 0.00 | 0.00 | 0.00 | 64 | 1012.3 |
| 20260506171608 | 55 | 331 | 2.6 | 11.3 | 0.00 | 0.00 | 0.00 | 64 | 1012.3 |
| 20260506171044 | 55 | 351 | 5.2 | 11.3 | 0.00 | 0.00 | 0.00 | 64 | 1012.4 |
| 20260506170540 | 55 | 355 | 3.5 | 9.6 | 0.00 | 0.00 | 0.00 | 64 | 1012.3 |
| 20260506170057 | 55 | 360 | 2.6 | 7.8 | 0.00 | 0.00 | 0.00 | 64 | 1012.3 |
| 20260506165540 | 55 | 26 | 2.6 | 8.7 | 0.00 | 0.00 | 0.00 | 64 | 1012.3 |
| 20260506165044 | 55 | 306 | 2.6 | 8.7 | 0.00 | 0.00 | 0.00 | 63 | 1012.2 |
| 20260506164551 | 55 | 355 | 3.5 | 10.4 | 0.00 | 0.00 | 0.00 | 64 | 1012.3 |
| 20260506164042 | 55 | 9 | 4.3 | 10.4 | 0.00 | 0.00 | 0.00 | 63 | 1012.3 |
| 20260506163543 | 55 | 349 | 4.3 | 10.4 | 0.00 | 0.00 | 0.00 | 63 | 1012.3 |
| 20260506163106 | 55 | 334 | 2.6 | 8.7 | 0.00 | 0.00 | 0.00 | 62 | 1012.3 |
| 20260506162541 | 56 | 336 | 3.5 | 7.8 | 0.00 | 0.00 | 0.00 | 63 | 1012.4 |
| 20260506162043 | 56 | 355 | 2.6 | 7.0 | 0.00 | 0.00 | 0.00 | 63 | 1012.4 |
| 20260506161550 | 56 | 40 | 3.5 | 8.7 | 0.00 | 0.00 | 0.00 | 63 | 1012.3 |
| 20260506161042 | 57 | 329 | 2.6 | 13.0 | 0.00 | 0.00 | 0.00 | 63 | 1012.3 |
| 20260506160542 | 57 | 339 | 4.3 | 13.0 | 0.00 | 0.00 | 0.00 | 62 | 1012.3 |
| 20260506160101 | 58 | 17 | 2.6 | 11.3 | 0.00 | 0.00 | 0.00 | 62 | 1012.3 |
| 20260506155541 | 58 | 344 | 1.7 | 8.7 | 0.00 | 0.00 | 0.00 | 61 | 1012.3 |
| 20260506155041 | 58 | 340 | 1.7 | 7.8 | 0.00 | 0.00 | 0.00 | 64 | 1012.4 |
| 20260506154554 | 58 | 19 | 1.7 | 8.7 | 0.00 | 0.00 | 0.00 | 64 | 1012.3 |
| 20260506154041 | 57 | 346 | 4.3 | 8.7 | 0.00 | 0.00 | 0.00 | 62 | 1012.4 |
| 20260506153544 | 57 | 352 | 1.7 | 7.8 | 0.00 | 0.00 | 0.00 | 64 | 1012.5 |
| 20260506153051 | 57 | 21 | 3.5 | 8.7 | 0.00 | 0.00 | 0.00 | 63 | 1012.5 |
| 20260506152544 | 57 | 14 | 2.6 | 9.6 | 0.00 | 0.00 | 0.00 | 65 | 1012.6 |
| 20260506152040 | 57 | 13 | 4.3 | 9.6 | 0.00 | 0.00 | 0.00 | 62 | 1012.5 |
| 20260506151550 | 57 | 309 | 3.5 | 8.7 | 0.00 | 0.00 | 0.00 | 64 | 1012.5 |
| 20260506151040 | 57 | 262 | 2.6 | 8.7 | 0.00 | 0.00 | 0.00 | 65 | 1012.5 |
| 20260506150540 | 57 | 301 | 3.5 | 8.7 | 0.00 | 0.00 | 0.00 | 63 | 1012.7 |
| 20260506150055 | 57 | 335 | 2.6 | 11.3 | 0.00 | 0.00 | 0.00 | 63 | 1012.7 |
| 20260506145542 | 57 | 13 | 3.5 | 13.0 | 0.00 | 0.00 | 0.00 | 62 | 1012.7 |
| 20260506145044 | 57 | 30 | 2.6 | 13.0 | 0.00 | 0.00 | 0.00 | 63 | 1012.6 |
| 20260506144600 | 59 | 341 | 4.3 | 12.2 | 0.00 | 0.00 | 0.00 | 61 | 1012.8 |
| 20260506144042 | 59 | 330 | 4.3 | 10.4 | 0.00 | 0.00 | 0.00 | 63 | 1012.7 |
| 20260506143541 | 59 | 323 | 1.7 | 12.2 | 0.00 | 0.00 | 0.00 | 63 | 1012.7 |
| 20260506143050 | 58 | 311 | 3.5 | 12.2 | 0.00 | 0.00 | 0.00 | 65 | 1012.6 |
| 20260506142540 | 58 | 0 | 4.3 | 12.2 | 0.00 | 0.00 | 0.00 | 64 | 1012.6 |
| 20260506142040 | 59 | 340 | 5.2 | 10.4 | 0.00 | 0.00 | 0.00 | 65 | 1012.7 |
| 20260506141550 | 59 | 360 | 3.5 | 10.4 | 0.00 | 0.00 | 0.00 | 64 | 1012.6 |
| 20260506141042 | 59 | 33 | 1.7 | 8.7 | 0.00 | 0.00 | 0.00 | 64 | 1012.7 |
| 20260506140543 | 59 | 312 | 3.5 | 8.7 | 0.00 | 0.00 | 0.00 | 65 | 1012.7 |
| 20260506140052 | 57 | 28 | 4.3 | 13.0 | 0.00 | 0.00 | 0.00 | 66 | 1012.7 |
| 20260506135541 | 57 | 344 | 4.3 | 13.0 | 0.00 | 0.00 | 0.00 | 64 | 1012.7 |
| 20260506135040 | 57 | 309 | 5.2 | 13.0 | 0.00 | 0.00 | 0.00 | 63 | 1012.8 |
| 20260506134551 | 58 | 324 | 2.6 | 10.4 | 0.00 | 0.00 | 0.00 | 66 | 1012.7 |
| 20260506134043 | 58 | 272 | 4.3 | 11.3 | 0.00 | 0.00 | 0.00 | 63 | 1012.8 |
| 20260506133541 | 59 | 355 | 4.3 | 11.3 | 0.00 | 0.00 | 0.00 | 61 | 1012.7 |
| 20260506133053 | 59 | 316 | 3.5 | 12.2 | 0.00 | 0.00 | 0.00 | 65 | 1012.6 |
| 20260506132545 | 58 | 355 | 4.3 | 12.2 | 0.00 | 0.00 | 0.00 | 63 | 1012.8 |
| 20260506132041 | 59 | 336 | 2.6 | 13.9 | 0.00 | 0.00 | 0.00 | 66 | 1012.6 |
| 20260506131557 | 57 | 348 | 1.7 | 13.9 | 0.00 | 0.00 | 0.00 | 68 | 1012.8 |
| 20260506131041 | 57 | 346 | 3.5 | 9.6 | 0.00 | 0.00 | 0.00 | 66 | 1012.7 |
| 20260506130541 | 56 | 337 | 2.6 | 14.8 | 0.00 | 0.00 | 0.00 | 67 | 1012.7 |
| 20260506130057 | 55 | 5 | 3.5 | 14.8 | 0.00 | 0.00 | 0.00 | 65 | 1012.7 |
| 20260506125540 | 56 | 310 | 6.1 | 13.0 | 0.00 | 0.00 | 0.00 | 64 | 1012.8 |
| 20260506125040 | 56 | 346 | 2.6 | 11.3 | 0.00 | 0.00 | 0.00 | 64 | 1012.7 |
| 20260506124550 | 57 | 360 | 5.2 | 11.3 | 0.00 | 0.00 | 0.00 | 62 | 1012.8 |
| 20260506124041 | 59 | 5 | 4.3 | 12.2 | 0.00 | 0.00 | 0.00 | 62 | 1012.7 |
| 20260506123542 | 58 | 313 | 3.5 | 12.2 | 0.00 | 0.00 | 0.00 | 67 | 1012.7 |
| 20260506123052 | 56 | 26 | 4.3 | 12.2 | 0.00 | 0.00 | 0.00 | 63 | 1012.8 |
| 20260506122542 | 57 | 350 | 5.2 | 12.2 | 0.00 | 0.00 | 0.00 | 64 | 1012.7 |
| 20260506122042 | 57 | 19 | 5.2 | 12.2 | 0.00 | 0.00 | 0.00 | 65 | 1012.9 |
| 20260506121550 | 57 | 329 | 4.3 | 11.3 | 0.00 | 0.00 | 0.00 | 63 | 1012.8 |
| 20260506121043 | 58 | 336 | 4.3 | 11.3 | 0.00 | 0.00 | 0.00 | 64 | 1012.8 |
| 20260506120541 | 58 | 16 | 5.2 | 10.4 | 0.00 | 0.00 | 0.00 | 61 | 1012.8 |
| 20260506120050 | 58 | 347 | 4.3 | 10.4 | 0.00 | 0.00 | 0.00 | 64 | 1012.7 |
| 20260506115541 | 58 | 323 | 3.5 | 13.0 | 0.00 | 0.00 | 0.00 | 64 | 1012.8 |
| 20260506115041 | 57 | 355 | 4.3 | 13.0 | 0.00 | 0.00 | 0.00 | 64 | 1012.9 |
| 20260506114554 | 58 | 331 | 7.0 | 12.2 | 0.00 | 0.00 | 0.00 | 62 | 1012.8 |
| 20260506114040 | 58 | 10 | 2.6 | 12.2 | 0.00 | 0.00 | 0.00 | 65 | 1012.9 |
| 20260506113540 | 57 | 317 | 6.1 | 12.2 | 0.00 | 0.00 | 0.00 | 65 | 1012.9 |
| 20260506113049 | 57 | 327 | 5.2 | 11.3 | 0.00 | 0.00 | 0.00 | 64 | 1012.9 |
| 20260506112540 | 58 | 335 | 3.5 | 11.3 | 0.00 | 0.00 | 0.00 | 65 | 1012.9 |
| 20260506112040 | 57 | 333 | 3.5 | 11.3 | 0.00 | 0.00 | 0.00 | 65 | 1013.0 |
| 20260506111550 | 57 | 355 | 6.1 | 11.3 | 0.00 | 0.00 | 0.00 | 65 | 1012.9 |
| 20260506111043 | 57 | 317 | 1.7 | 11.3 | 0.00 | 0.00 | 0.00 | 64 | 1013.0 |
| 20260506110540 | 58 | 309 | 3.5 | 11.3 | 0.00 | 0.00 | 0.00 | 61 | 1012.9 |
| 20260506110048 | 57 | 351 | 5.2 | 12.2 | 0.00 | 0.00 | 0.00 | 63 | 1012.8 |
| 20260506105540 | 56 | 309 | 3.5 | 13.0 | 0.00 | 0.00 | 0.00 | 64 | 1012.9 |
| 20260506105042 | 56 | 291 | 6.1 | 14.8 | 0.00 | 0.00 | 0.00 | 60 | 1012.9 |
| 20260506104546 | 57 | 350 | 7.0 | 14.8 | 0.00 | 0.00 | 0.00 | 61 | 1012.9 |
| 20260506104041 | 57 | 317 | 4.3 | 13.9 | 0.00 | 0.00 | 0.00 | 63 | 1012.9 |
| 20260506103541 | 57 | 355 | 3.5 | 12.2 | 0.00 | 0.00 | 0.00 | 63 | 1012.9 |
| 20260506103052 | 56 | 30 | 5.2 | 13.9 | 0.00 | 0.00 | 0.00 | 62 | 1012.8 |
| 20260506102541 | 57 | 312 | 4.3 | 13.9 | 0.00 | 0.00 | 0.00 | 63 | 1012.9 |
| 20260506102041 | 57 | 32 | 6.1 | 13.9 | 0.00 | 0.00 | 0.00 | 61 | 1012.9 |
| 20260506101550 | 56 | 242 | 5.2 | 13.0 | 0.00 | 0.00 | 0.00 | 62 | 1012.9 |
| 20260506101040 | 55 | 348 | 6.1 | 13.0 | 0.00 | 0.00 | 0.00 | 64 | 1012.9 |
| 20260506100540 | 54 | 350 | 6.1 | 11.3 | 0.00 | 0.00 | 0.00 | 64 | 1013.0 |
| 20260506095541 | 55 | 342 | 2.6 | 11.3 | 0.00 | 0.00 | 0.00 | 65 | 1012.9 |
| 20260506095043 | 57 | 5 | 1.7 | 11.3 | 0.00 | 0.00 | 0.00 | 63 | 1012.9 |
| 20260506094549 | 57 | 344 | 3.5 | 9.6 | 0.00 | 0.00 | 0.00 | 64 | 1013.0 |
| 20260506094041 | 56 | 9 | 2.6 | 10.4 | 0.00 | 0.00 | 0.00 | 63 | 1012.9 |
| 20260506093541 | 55 | 292 | 4.3 | 12.2 | 0.00 | 0.00 | 0.00 | 63 | 1012.9 |
| 20260506093053 | 55 | 335 | 3.5 | 12.2 | 0.00 | 0.00 | 0.00 | 64 | 1012.8 |
| 20260506092541 | 56 | 307 | 4.3 | 12.2 | 0.00 | 0.00 | 0.00 | 64 | 1012.9 |
| 20260506092045 | 56 | 308 | 2.6 | 8.7 | 0.00 | 0.00 | 0.00 | 67 | 1012.8 |
| 20260506091553 | 55 | 355 | 3.5 | 9.6 | 0.00 | 0.00 | 0.00 | 66 | 1012.9 |
| 20260506091041 | 56 | 281 | 0.9 | 9.6 | 0.00 | 0.00 | 0.00 | 69 | 1012.9 |
| 20260506090540 | 55 | 289 | 2.6 | 9.6 | 0.00 | 0.00 | 0.00 | 70 | 1012.8 |
| 20260506090050 | 53 | 325 | 2.6 | 9.6 | 0.00 | 0.00 | 0.00 | 71 | 1012.8 |
| 20260506085540 | 52 | 314 | 1.7 | 8.7 | 0.00 | 0.00 | 0.00 | 71 | 1012.9 |
| 20260506085040 | 52 | 316 | 2.6 | 9.6 | 0.00 | 0.00 | 0.00 | 72 | 1012.8 |
| 20260506084557 | 51 | 0 | 4.3 | 10.4 | 0.00 | 0.00 | 0.00 | 73 | 1012.9 |
| 20260506084041 | 51 | 303 | 2.6 | 12.2 | 0.00 | 0.00 | 0.00 | 73 | 1012.9 |
| 20260506083541 | 51 | 280 | 3.5 | 12.2 | 0.00 | 0.00 | 0.00 | 74 | 1012.8 |
| 20260506083050 | 51 | 20 | 1.7 | 7.8 | 0.00 | 0.00 | 0.00 | 76 | 1012.8 |
| 20260506082542 | 50 | 342 | 2.6 | 7.8 | 0.00 | 0.00 | 0.00 | 76 | 1012.8 |
| 20260506082040 | 50 | 360 | 0.9 | 7.8 | 0.00 | 0.00 | 0.00 | 77 | 1012.9 |
| 20260506081550 | 50 | 346 | 2.6 | 7.8 | 0.00 | 0.00 | 0.00 | 77 | 1012.9 |
| 20260506081041 | 49 | 98 | 1.7 | 7.8 | 0.00 | 0.00 | 0.00 | 77 | 1012.9 |